Bad Axe, MI

5:31 PM EDT on October 18, 2017 (GMT -0400)
Huron County Memorial

Weather History for KBAX - August, 2014

Change the Weather History Date:

Monday, August 18, 2014

  Actual Average (KP58) Record (KP58)
Temperature  
Mean Temperature 59 °F -  
Max Temperature 72 °F 72 °F 86 °F (2008)
Min Temperature 46 °F 58 °F 51 °F (2012)
Degree Days  
Heating Degree Days 6    
Growing Degree Days 9 (Base 50)    
Moisture  
Dew Point 56 °F    
Average Humidity 88    
Maximum Humidity 100    
Minimum Humidity 67    
Precipitation  
Precipitation 0.00 in - - ()
Sea Level Pressure  
Sea Level Pressure 29.95 in    
Wind  
Wind Speed 2 mph (East)    
Max Wind Speed 8 mph    
Max Gust Speed -    
Visibility 8 miles    
Events Fog    
Averages and records for this station are not official NWS values.
T = Trace of Precipitation, MM = Missing Value Source: NWS Daily Summary

Daily Weather History Graph

Daily Weather History Graph

Search for Another Location

Airport or City:

Trip Planner

Search our weather history database for the weather conditions in past years. The results will help you decide how hot, cold, wet, or windy it might be!

Date:

Astronomy

Aug. 18, 2014 Rise Set
Actual Time 6:39 AM EDT 8:31 PM EDT
Civil Twilight 6:08 AM EDT 9:01 PM EDT
Nautical Twilight 5:31 AM EDT 9:39 PM EDT
Astronomical Twilight 4:50 AM EDT 10:20 PM EDT
Moon 12:43 AM EDT 3:36 PM EDT
Length of Visible Light 14h 53m
Length of Day
13h 51m
Last Quarter, 38% of the Moon is Illuminated
Aug 18
Last Quarter
Aug 25
New
Sep 2
First Quarter
Sep 8
Full
Sep 15
Last Quarter

Hourly Weather History & Observations

Time (EDT) Temp. Dew Point Humidity Pressure Visibility Wind Dir Wind Speed Gust Speed Precip Events Conditions
12:15 AM 54.5 °F 54.5 °F 100% 30.03 in 10.0 mi Calm Calm - N/A   Clear
12:36 AM 52.5 °F 52.5 °F 100% 30.03 in 10.0 mi Calm Calm - N/A   Clear
12:56 AM 51.8 °F 51.8 °F 100% 30.04 in 2.5 mi Calm Calm - N/A   Mostly Cloudy
1:15 AM 51.6 °F 51.6 °F 100% 30.03 in 1.0 mi Calm Calm - N/A   Overcast
1:36 AM 50.0 °F 50.0 °F 100% 30.02 in 5.0 mi Calm Calm - N/A   Scattered Clouds
1:56 AM 49.3 °F 49.3 °F 100% 30.01 in 0.8 mi Calm Calm - N/A   Mostly Cloudy
2:15 AM 49.8 °F 49.8 °F 100% 30.01 in 0.2 mi Calm Calm - N/A Fog Fog
2:36 AM 49.3 °F 49.3 °F 100% 30.00 in 0.8 mi Calm Calm - N/A   Overcast
2:55 AM 48.4 °F 48.4 °F 100% 30.00 in 10.0 mi Calm Calm - N/A   Mostly Cloudy
3:15 AM 50.0 °F 50.0 °F 100% 29.99 in 1.2 mi Calm Calm - N/A   Mostly Cloudy
3:36 AM 48.0 °F 48.0 °F 100% 29.99 in 5.0 mi Calm Calm - N/A   Clear
3:56 AM 48.7 °F 48.7 °F 100% 29.98 in 1.0 mi Calm Calm - N/A   Mist
4:15 AM 46.8 °F 46.8 °F 100% 29.98 in 5.0 mi Calm Calm - N/A   Clear
4:36 AM 50.5 °F 50.5 °F 100% 29.97 in 1.0 mi Calm Calm - N/A   Mostly Cloudy
4:55 AM 49.8 °F 49.8 °F 100% 29.97 in 2.0 mi Calm Calm - N/A   Scattered Clouds
5:15 AM 47.5 °F 47.5 °F 100% 29.97 in 4.0 mi Calm Calm - N/A   Scattered Clouds
5:36 AM 47.3 °F 47.3 °F 100% 29.97 in 10.0 mi Calm Calm - N/A   Scattered Clouds
5:55 AM 49.5 °F 49.5 °F 100% 29.98 in 0.5 mi Calm Calm - N/A Fog Fog
6:16 AM 48.6 °F 48.6 °F 100% 29.99 in 2.0 mi Calm Calm - N/A   Mostly Cloudy
6:36 AM 47.7 °F 47.7 °F 100% 29.99 in 2.5 mi Calm Calm - N/A   Mostly Cloudy
6:55 AM 47.3 °F 47.3 °F 100% 30.00 in 0.2 mi Calm Calm - N/A Fog Fog
7:16 AM 47.8 °F 47.8 °F 100% 30.00 in 0.2 mi Calm Calm - N/A Fog Fog
7:36 AM 48.4 °F 48.4 °F 100% 30.00 in 0.2 mi Calm Calm - N/A Fog Fog
7:55 AM 50.5 °F 50.5 °F 100% 30.00 in 7.0 mi Calm Calm - N/A   Scattered Clouds
8:16 AM 56.5 °F 56.5 °F 100% 30.00 in 7.0 mi Calm Calm - N/A   Clear
8:36 AM 59.0 °F 59.0 °F 100% 30.00 in 10.0 mi East 3.5 mph - N/A   Clear
8:55 AM 60.1 °F 60.1 °F 100% 30.00 in 10.0 mi East 3.5 mph - N/A   Clear
9:16 AM 61.3 °F 61.3 °F 100% 30.00 in 10.0 mi ENE 6.9 mph - N/A   Scattered Clouds
9:36 AM 61.9 °F 61.3 °F 98% 29.99 in 10.0 mi East 5.8 mph - N/A   Mostly Cloudy
9:55 AM 62.6 °F 59.9 °F 91% 29.98 in 10.0 mi ENE 6.9 mph - N/A   Scattered Clouds
10:16 AM 63.3 °F 59.0 °F 86% 29.98 in 10.0 mi ENE 6.9 mph - N/A   Clear
10:36 AM 64.6 °F 59.2 °F 83% 29.98 in 10.0 mi SE 4.6 mph - N/A   Clear
10:55 AM 65.5 °F 59.2 °F 80% 29.98 in 10.0 mi SE 3.5 mph - N/A   Clear
11:16 AM 66.2 °F 59.5 °F 79% 29.97 in 10.0 mi ESE 4.6 mph - N/A   Clear
11:36 AM 66.6 °F 58.8 °F 76% 29.97 in 10.0 mi Calm Calm - N/A   Clear
11:56 AM 67.5 °F 59.4 °F 75% 29.97 in 10.0 mi East 4.6 mph - N/A   Clear
12:16 PM 67.5 °F 59.4 °F 75% 29.96 in 10.0 mi East 4.6 mph - N/A   Scattered Clouds
12:36 PM 68.5 °F 60.4 °F 75% 29.95 in 10.0 mi East 4.6 mph - N/A   Scattered Clouds
12:56 PM 69.1 °F 59.9 °F 72% 29.95 in 10.0 mi Calm Calm - N/A   Scattered Clouds
1:16 PM 69.3 °F 59.9 °F 72% 29.95 in 10.0 mi East 5.8 mph - N/A   Scattered Clouds
1:35 PM 68.9 °F 59.4 °F 72% 29.94 in 10.0 mi ESE 5.8 mph - N/A   Scattered Clouds
1:56 PM 69.8 °F 58.8 °F 68% 29.94 in 10.0 mi Calm Calm - N/A   Scattered Clouds
2:16 PM 70.9 °F 59.7 °F 68% 29.94 in 10.0 mi East 3.5 mph - N/A   Mostly Cloudy
2:35 PM 71.6 °F 60.3 °F 67% 29.93 in 10.0 mi East 3.5 mph - N/A   Scattered Clouds
2:56 PM 70.5 °F 60.3 °F 70% 29.92 in 10.0 mi East 4.6 mph - N/A   Scattered Clouds
3:16 PM 71.6 °F 60.1 °F 67% 29.92 in 10.0 mi ENE 4.6 mph - N/A   Mostly Cloudy
3:35 PM 71.4 °F 59.9 °F 67% 29.92 in 10.0 mi Calm Calm - N/A   Mostly Cloudy
3:56 PM 72.0 °F 61.2 °F 69% 29.91 in 10.0 mi East 6.9 mph - N/A   Mostly Cloudy
4:16 PM 72.3 °F 61.3 °F 68% 29.91 in 10.0 mi ENE 4.6 mph - N/A   Scattered Clouds
4:35 PM 71.8 °F 62.1 °F 71% 29.90 in 10.0 mi ENE 8.1 mph - N/A   Scattered Clouds
4:56 PM 71.6 °F 62.2 °F 72% 29.90 in 10.0 mi East 8.1 mph - N/A   Scattered Clouds
5:16 PM 71.8 °F 62.1 °F 71% 29.90 in 10.0 mi ESE 5.8 mph - N/A   Scattered Clouds
5:36 PM 71.1 °F 61.5 °F 72% 29.90 in 10.0 mi ENE 4.6 mph - N/A   Scattered Clouds
5:56 PM 71.1 °F 61.3 °F 71% 29.90 in 10.0 mi East 4.6 mph - N/A   Mostly Cloudy
6:16 PM 70.5 °F 61.0 °F 72% 29.90 in 10.0 mi ENE 6.9 mph - N/A   Scattered Clouds
6:36 PM 69.4 °F 60.3 °F 73% 29.89 in 10.0 mi East 4.6 mph - N/A   Clear
6:56 PM 68.9 °F 59.7 °F 72% 29.88 in 10.0 mi East 4.6 mph - N/A   Clear
7:16 PM 67.5 °F 58.8 °F 74% 29.87 in 10.0 mi East 5.8 mph - N/A   Clear
7:36 PM 66.2 °F 58.8 °F 77% 29.88 in 10.0 mi East 3.5 mph - N/A   Clear
7:56 PM 64.9 °F 59.0 °F 81% 29.88 in 10.0 mi East 3.5 mph - N/A   Clear
8:16 PM 63.5 °F 58.6 °F 84% 29.87 in 10.0 mi East 3.5 mph - N/A   Clear
8:36 PM 62.1 °F 58.5 °F 88% 29.87 in 10.0 mi East 3.5 mph - N/A   Clear
8:56 PM 61.2 °F 58.5 °F 91% 29.87 in 10.0 mi Calm Calm - N/A   Clear
9:16 PM 60.4 °F 58.5 °F 93% 29.88 in 10.0 mi Calm Calm - N/A   Clear
9:36 PM 59.9 °F 58.6 °F 96% 29.88 in 10.0 mi Calm Calm - N/A   Clear
9:56 PM 59.5 °F 59.0 °F 98% 29.88 in 10.0 mi Calm Calm - N/A   Clear
10:16 PM 59.9 °F 59.5 °F 99% 29.88 in 10.0 mi Calm Calm - N/A   Mostly Cloudy
10:36 PM 59.4 °F 59.2 °F 99% 29.87 in 7.0 mi East 3.5 mph - N/A   Scattered Clouds
10:56 PM 59.2 °F 59.2 °F 100% 29.87 in 7.0 mi East 3.5 mph - N/A   Clear
11:16 PM 59.2 °F 59.2 °F 100% 29.87 in 7.0 mi Calm Calm - N/A   Clear
11:36 PM 59.5 °F 59.5 °F 100% 29.87 in 7.0 mi Calm Calm - N/A   Mostly Cloudy